User: anonymous   Login
Location: ??
(35.5052°N, 139.7262°E)
Time: 07:00:43
(UTC+00:00)
Language:

Aureole 3 Rocket - Orbit

View from above orbital plane
View from above orbital plane
View from above satellite
View from above satellite

Ground track
Ground track

The orbit data is extracted from the following two-line orbital elements,

1 12849U 81094B   21265.65739555  .00000913  00000-0  82513-4 0  9993
2 12849  82.4924  50.0464 0900065 182.0851 177.6444 13.50932729952302
Epoch (UTC): 22 September 2021 15:46:38
Eccentricity: 0.0900065
inclination: 82.4924°
perigee height: 398 km
apogee height: 1739 km
right ascension of ascending node: 50.0464°
argument of perigee: 182.0851°
revolutions per day: 13.50932729
mean anomaly at epoch: 177.6444°
orbit number at epoch: 95230

The dashed part of the orbit path shows where the satellite is in the earth's shadow,  

DLR